Time,TemperatureF,DewpointF,PressureIn,WindDirection,WindDirectionDegrees,WindSpeedMPH,WindSpeedGustMPH,Humidity,HourlyPrecipIn,Conditions,Clouds,dailyrainin,SoftwareType,DateUTC
2013-01-31 00:03:00,56.1,56.1,28.73,SSE,158,2.2,2.2,100,0.12,,,0.04,WSDL version 342,2013-01-31 05:03:00,
2013-01-31 00:05:00,56.2,56.2,28.73,SSE,158,2.2,2.2,100,0.12,,,0.04,WSDL version 342,2013-01-31 05:05:00,
2013-01-31 00:06:00,56.2,56.2,28.73,SSE,158,2.2,2.2,100,0.12,,,0.04,WSDL version 342,2013-01-31 05:06:00,
2013-01-31 00:07:00,56.3,56.3,28.73,SSE,158,2.2,2.2,100,0.12,,,0.04,WSDL version 342,2013-01-31 05:07:00,
2013-01-31 00:12:00,56.3,56.3,28.73,North,0,0.0,1.6,100,0.16,,,0.08,WSDL version 342,2013-01-31 05:12:00,
2013-01-31 00:17:00,56.3,56.3,28.73,North,-999,-999.0,-999.0,100,0.16,,,0.08,WSDL version 342,2013-01-31 05:17:00,
2013-01-31 00:22:00,56.3,56.3,28.73,North,-999,-999.0,-999.0,100,0.20,,,0.12,WSDL version 342,2013-01-31 05:22:00,
2013-01-31 00:27:00,56.3,56.3,28.67,North,-999,-999.0,-999.0,100,0.20,,,0.12,WSDL version 342,2013-01-31 05:27:00,
2013-01-31 00:32:00,56.3,56.3,28.67,SSE,158,2.7,5.6,100,0.20,,,0.12,WSDL version 342,2013-01-31 05:32:00,
2013-01-31 00:37:00,56.5,56.5,28.67,SSE,158,2.9,5.6,100,0.20,,,0.12,WSDL version 342,2013-01-31 05:37:00,
2013-01-31 00:43:00,56.7,56.7,28.67,SSE,158,4.5,10.7,100,0.25,,,0.17,WSDL version 342,2013-01-31 05:43:00,
2013-01-31 00:48:00,56.8,56.7,28.67,ESE,107,4.2,10.7,100,0.17,,,0.17,WSDL version 342,2013-01-31 05:48:00,
2013-01-31 00:53:00,56.8,56.8,28.67,East,90,5.6,10.7,100,0.17,,,0.17,WSDL version 342,2013-01-31 05:53:00,
2013-01-31 00:58:00,57.1,57.1,28.64,East,96,6.2,8.5,100,0.17,,,0.17,WSDL version 342,2013-01-31 05:58:00,
2013-01-31 01:03:00,57.3,57.3,28.64,East,85,6.8,9.6,100,0.13,,,0.17,WSDL version 342,2013-01-31 06:03:00,
2013-01-31 01:08:00,57.4,57.4,28.64,ESE,104,6.3,9.6,100,0.09,,,0.17,WSDL version 342,2013-01-31 06:08:00,
2013-01-31 01:13:00,57.8,57.8,28.59,East,90,7.2,10.5,100,0.13,,,0.21,WSDL version 342,2013-01-31 06:13:00,
2013-01-31 01:18:00,58.0,58.0,28.59,ESE,118,8.7,14.1,100,0.13,,,0.21,WSDL version 342,2013-01-31 06:18:00,
2013-01-31 01:23:00,58.2,58.2,28.59,ESE,107,8.9,14.1,100,0.09,,,0.21,WSDL version 342,2013-01-31 06:23:00,
2013-01-31 01:28:00,58.5,58.5,28.56,SE,124,10.1,14.1,100,0.09,,,0.21,WSDL version 342,2013-01-31 06:28:00,
2013-01-31 01:33:00,58.6,58.6,28.56,ESE,122,10.4,14.8,100,0.09,,,0.21,WSDL version 342,2013-01-31 06:33:00,
2013-01-31 01:38:00,58.8,58.8,28.56,ESE,122,9.4,15.4,100,0.09,,,0.21,WSDL version 342,2013-01-31 06:38:00,
2013-01-31 01:43:00,59.0,59.0,28.53,ESE,113,8.2,15.7,100,0.04,,,0.21,WSDL version 342,2013-01-31 06:43:00,
2013-01-31 01:48:00,59.2,59.2,28.53,ESE,122,11.4,21.0,100,0.04,,,0.21,WSDL version 342,2013-01-31 06:48:00,
2013-01-31 01:53:00,59.3,59.3,28.53,ESE,118,7.8,22.6,100,0.04,,,0.21,WSDL version 342,2013-01-31 06:53:00,
2013-01-31 01:58:00,59.6,59.6,28.53,SE,124,9.0,27.5,100,0.04,,,0.21,WSDL version 342,2013-01-31 06:58:00,
2013-01-31 02:03:00,59.7,59.7,28.53,ESE,113,12.2,27.5,100,0.04,,,0.21,WSDL version 342,2013-01-31 07:03:00,
2013-01-31 02:08:00,59.8,59.8,28.53,SE,127,13.0,25.9,100,0.04,,,0.21,WSDL version 342,2013-01-31 07:08:00,
2013-01-31 02:13:00,60.1,59.0,28.47,SE,138,9.0,25.9,96,0.00,,,0.21,WSDL version 342,2013-01-31 07:13:00,
2013-01-31 02:18:00,60.2,58.4,28.47,ESE,109,9.2,19.5,93,-99.99,,,-99.99,WSDL version 342,2013-01-31 07:18:00,
2013-01-31 02:23:00,60.4,58.0,28.47,SE,131,9.5,26.4,91,0.00,,,0.21,WSDL version 342,2013-01-31 07:23:00,
2013-01-31 02:29:00,60.4,57.8,28.50,ESE,106,12.0,26.4,91,0.00,,,0.21,WSDL version 342,2013-01-31 07:29:00,
2013-01-31 02:35:00,60.4,58.1,28.50,SE,131,9.3,30.9,92,0.00,,,0.21,WSDL version 342,2013-01-31 07:35:00,
2013-01-31 02:40:00,60.2,58.2,28.50,East,86,10.6,30.9,93,0.00,,,0.21,WSDL version 342,2013-01-31 07:40:00,
2013-01-31 02:45:00,60.1,58.4,28.50,East,90,10.3,22.1,94,0.04,,,0.25,WSDL version 342,2013-01-31 07:45:00,
2013-01-31 02:50:00,60.1,58.6,28.50,ESE,113,8.7,19.2,96,0.04,,,0.25,WSDL version 342,2013-01-31 07:50:00,
2013-01-31 02:55:00,59.9,58.6,28.50,East,79,7.7,19.2,96,0.08,,,0.29,WSDL version 342,2013-01-31 07:55:00,
2013-01-31 03:00:00,59.9,58.8,28.47,SE,135,6.3,16.8,97,0.12,,,0.33,WSDL version 342,2013-01-31 08:00:00,
2013-01-31 03:05:00,59.7,58.9,28.47,NE,45,4.3,8.1,98,0.21,,,0.42,WSDL version 342,2013-01-31 08:05:00,
2013-01-31 03:10:00,59.7,59.1,28.47,NE,45,4.3,8.1,98,0.21,,,0.42,WSDL version 342,2013-01-31 08:10:00,
2013-01-31 03:15:00,59.7,59.4,28.44,NW,315,7.8,10.5,99,0.25,,,0.46,WSDL version 342,2013-01-31 08:15:00,
2013-01-31 03:20:00,59.4,59.0,28.44,SSW,205,9.4,10.7,98,0.46,,,0.67,WSDL version 342,2013-01-31 08:20:00,
2013-01-31 03:25:00,58.6,57.3,28.44,SSW,203,6.7,10.7,96,0.54,,,0.75,WSDL version 342,2013-01-31 08:25:00,
2013-01-31 03:30:00,58.3,57.0,28.53,WSW,248,8.5,11.0,96,0.54,,,0.75,WSDL version 342,2013-01-31 08:30:00,
2013-01-31 03:35:00,58.1,56.8,28.53,SW,218,8.8,14.3,96,0.58,,,0.79,WSDL version 342,2013-01-31 08:35:00,
2013-01-31 03:40:00,57.9,56.9,28.53,WNW,293,9.6,17.2,97,0.58,,,0.79,WSDL version 342,2013-01-31 08:40:00,
2013-01-31 03:45:00,57.7,56.6,28.56,West,270,5.4,17.2,96,0.54,,,0.79,WSDL version 342,2013-01-31 08:45:00,
2013-01-31 03:50:00,57.5,56.2,28.56,WSW,240,2.9,12.8,96,0.58,,,0.83,WSDL version 342,2013-01-31 08:50:00,
2013-01-31 03:55:00,57.3,56.1,28.56,WSW,248,5.8,10.1,96,0.54,,,0.83,WSDL version 342,2013-01-31 08:55:00,
2013-01-31 04:00:00,57.1,55.9,28.53,ENE,68,5.8,8.5,96,0.49,,,0.87,WSDL version 342,2013-01-31 09:00:00,
2013-01-31 04:05:00,57.0,55.9,28.53,ENE,68,5.8,8.1,96,0.45,,,0.87,WSDL version 342,2013-01-31 09:05:00,
2013-01-31 04:10:00,56.8,55.8,28.53,West,270,5.4,5.4,97,0.50,,,0.92,WSDL version 342,2013-01-31 09:10:00,
2013-01-31 04:15:00,56.8,55.9,28.50,West,259,5.5,5.5,97,0.46,,,0.92,WSDL version 342,2013-01-31 09:15:00,
2013-01-31 04:20:00,56.8,55.8,28.50,West,270,4.5,4.5,97,0.21,,,0.92,WSDL version 342,2013-01-31 09:20:00,
2013-01-31 04:25:00,56.6,55.6,28.50,NNW,338,2.6,5.8,97,0.20,,,0.95,WSDL version 342,2013-01-31 09:25:00,
2013-01-31 04:30:00,56.5,55.5,28.50,SSE,162,4.6,10.3,97,0.16,,,0.95,WSDL version 342,2013-01-31 09:30:00,
2013-01-31 04:35:00,56.3,55.4,28.50,SSE,161,5.1,10.3,97,-99.99,,,-99.99,WSDL version 342,2013-01-31 09:35:00,
2013-01-31 04:40:00,56.3,55.4,28.50,SE,139,3.4,9.4,97,0.16,,,0.95,WSDL version 342,2013-01-31 09:40:00,
2013-01-31 04:45:00,56.2,55.2,28.50,SE,135,6.0,8.9,97,0.12,,,0.95,WSDL version 342,2013-01-31 09:45:00,
2013-01-31 04:50:00,56.0,55.1,28.50,SSE,151,3.0,8.5,97,0.12,,,0.95,WSDL version 342,2013-01-31 09:50:00,
2013-01-31 04:55:00,55.9,55.0,28.50,SSE,154,3.3,9.4,97,0.12,,,0.95,WSDL version 342,2013-01-31 09:55:00,
2013-01-31 05:00:00,55.8,54.6,28.50,East,101,4.4,9.4,96,0.08,,,0.95,WSDL version 342,2013-01-31 10:00:00,
2013-01-31 05:05:00,55.7,54.4,28.50,SSE,158,6.5,12.8,96,0.08,,,0.95,WSDL version 342,2013-01-31 10:05:00,
2013-01-31 05:10:00,55.6,54.3,28.50,SSE,163,8.4,13.2,94,0.03,,,0.95,WSDL version 342,2013-01-31 10:10:00,
2013-01-31 05:15:00,55.6,54.0,28.44,South,173,5.5,13.2,94,0.03,,,0.95,WSDL version 342,2013-01-31 10:15:00,
2013-01-31 05:20:00,55.4,53.5,28.44,South,169,6.0,12.1,92,0.03,,,0.95,WSDL version 342,2013-01-31 10:20:00,
2013-01-31 05:25:00,55.4,52.9,28.44,SW,221,5.8,12.1,91,0.00,,,0.95,WSDL version 342,2013-01-31 10:25:00,
2013-01-31 05:30:00,55.1,52.6,28.47,SSW,206,8.9,16.8,91,0.09,,,1.04,WSDL version 342,2013-01-31 10:30:00,
2013-01-31 05:35:00,54.5,51.7,28.47,SW,236,6.3,16.8,90,0.09,,,1.04,WSDL version 342,2013-01-31 10:35:00,
2013-01-31 05:40:00,54.2,51.3,28.47,SW,231,6.9,11.9,90,0.13,,,1.08,WSDL version 342,2013-01-31 10:40:00,
2013-01-31 05:45:00,53.9,51.2,28.47,WNW,293,5.6,12.5,91,0.13,,,1.08,WSDL version 342,2013-01-31 10:45:00,
2013-01-31 05:50:00,53.6,51.3,28.47,West,266,7.4,12.5,92,0.13,,,1.08,WSDL version 342,2013-01-31 10:50:00,
2013-01-31 05:55:00,51.4,43.4,28.47,West,281,10.4,23.9,69,0.13,,,1.08,WSDL version 342,2013-01-31 10:55:00,
2013-01-31 06:00:00,49.9,40.3,28.53,WNW,288,12.2,23.9,69,0.13,,,1.08,WSDL version 342,2013-01-31 11:00:00,
2013-01-31 06:05:00,48.7,38.0,28.53,WSW,257,16.8,23.3,63,0.13,,,1.08,WSDL version 342,2013-01-31 11:05:00,
2013-01-31 06:10:00,47.3,35.8,28.53,West,262,9.1,23.0,67,0.13,,,1.08,WSDL version 342,2013-01-31 11:10:00,
2013-01-31 06:15:00,46.7,37.3,28.59,West,264,11.4,23.0,70,0.13,,,1.08,WSDL version 342,2013-01-31 11:15:00,
2013-01-31 06:20:00,45.9,36.1,28.59,WSW,248,9.2,23.0,67,-99.99,,,-99.99,WSDL version 342,2013-01-31 11:20:00,
2013-01-31 06:25:00,45.4,33.1,28.59,West,270,8.1,17.4,62,0.13,,,1.08,WSDL version 342,2013-01-31 11:25:00,
2013-01-31 06:30:00,44.9,28.1,28.61,West,260,10.8,19.7,48,0.04,,,1.08,WSDL version 342,2013-01-31 11:30:00,
2013-01-31 06:35:00,44.7,24.9,28.61,WSW,255,11.0,25.1,47,0.04,,,1.08,WSDL version 342,2013-01-31 11:35:00,
2013-01-31 06:40:00,44.4,24.7,28.61,West,275,10.9,25.1,46,0.00,,,1.08,WSDL version 342,2013-01-31 11:40:00,
2013-01-31 06:45:00,44.2,22.5,28.61,West,273,10.9,23.7,41,0.00,,,1.08,WSDL version 342,2013-01-31 11:45:00,
2013-01-31 06:50:00,44.1,21.8,28.61,WSW,257,10.4,23.7,41,-99.99,,,-99.99,WSDL version 342,2013-01-31 11:50:00,
2013-01-31 06:55:00,44.0,21.8,28.61,NW,320,9.5,22.1,41,0.00,,,1.08,WSDL version 342,2013-01-31 11:55:00,
2013-01-31 07:00:00,43.9,21.9,28.61,West,276,10.3,19.0,42,0.00,,,1.08,WSDL version 342,2013-01-31 12:00:00,
2013-01-31 07:05:00,43.7,22.1,28.61,WSW,254,10.5,19.0,42,0.00,,,1.08,WSDL version 342,2013-01-31 12:05:00,
2013-01-31 07:10:00,43.6,22.5,28.61,West,280,8.0,22.6,44,0.00,,,1.08,WSDL version 342,2013-01-31 12:10:00,
2013-01-31 07:15:00,43.4,22.3,28.61,West,267,11.0,22.6,42,0.00,,,1.08,WSDL version 342,2013-01-31 12:15:00,
2013-01-31 07:20:00,43.3,21.0,28.61,West,280,12.3,24.4,41,0.00,,,1.08,WSDL version 342,2013-01-31 12:20:00,
2013-01-31 07:25:00,43.1,21.0,28.64,WSW,255,9.8,24.4,41,0.00,,,1.08,WSDL version 342,2013-01-31 12:25:00,
2013-01-31 07:30:00,43.0,20.9,28.64,WSW,248,8.2,19.5,41,0.00,,,1.08,WSDL version 342,2013-01-31 12:30:00,
2013-01-31 07:35:00,42.8,21.1,28.64,West,270,9.2,19.5,42,0.00,,,1.08,WSDL version 342,2013-01-31 12:35:00,
2013-01-31 07:40:00,42.6,21.7,28.67,West,261,7.5,12.3,43,0.00,,,1.08,WSDL version 342,2013-01-31 12:40:00,
2013-01-31 07:45:00,42.4,22.1,28.67,WSW,255,6.9,17.4,45,-99.99,,,-99.99,WSDL version 342,2013-01-31 12:45:00,
2013-01-31 07:50:00,42.4,21.3,28.67,WSW,257,11.2,19.5,42,0.00,,,1.08,WSDL version 342,2013-01-31 12:50:00,
2013-01-31 07:55:00,42.4,21.7,28.67,West,280,12.0,19.5,42,0.00,,,1.08,WSDL version 342,2013-01-31 12:55:00,
2013-01-31 08:00:00,42.2,19.8,28.67,WNW,283,11.8,19.7,40,0.00,,,1.08,WSDL version 342,2013-01-31 13:00:00,
2013-01-31 08:05:00,41.9,19.8,28.67,West,281,11.4,19.7,40,0.00,,,1.08,WSDL version 342,2013-01-31 13:05:00,
2013-01-31 08:10:00,41.5,18.1,28.70,West,281,16.1,24.4,37,0.00,,,1.08,WSDL version 342,2013-01-31 13:10:00,
2013-01-31 08:15:00,41.1,17.4,28.70,West,264,9.1,24.4,38,0.00,,,1.08,WSDL version 342,2013-01-31 13:15:00,
2013-01-31 08:20:00,40.9,17.6,28.70,West,267,10.9,15.4,39,0.00,,,1.08,WSDL version 342,2013-01-31 13:20:00,
2013-01-31 08:25:00,40.6,16.4,28.73,West,259,12.8,17.4,35,0.00,,,1.08,WSDL version 342,2013-01-31 13:25:00,
2013-01-31 08:30:00,40.5,14.6,28.73,WNW,286,11.1,22.6,34,0.00,,,1.08,WSDL version 342,2013-01-31 13:30:00,
2013-01-31 08:35:00,40.5,14.5,28.73,WNW,293,9.1,22.6,35,0.00,,,1.08,WSDL version 342,2013-01-31 13:35:00,
2013-01-31 08:40:00,40.6,13.6,28.73,SW,235,11.8,19.7,32,0.00,,,1.08,WSDL version 342,2013-01-31 13:40:00,
2013-01-31 08:45:00,40.6,13.8,28.73,WSW,251,8.3,19.7,34,0.00,,,1.08,WSDL version 342,2013-01-31 13:45:00,
2013-01-31 08:50:00,40.8,14.3,28.73,West,276,10.8,13.9,33,0.00,,,1.08,WSDL version 342,2013-01-31 13:50:00,
2013-01-31 08:55:00,40.6,12.9,28.73,WSW,248,9.6,25.1,32,0.00,,,1.08,WSDL version 342,2013-01-31 13:55:00,
2013-01-31 09:00:00,40.9,13.0,28.73,West,273,9.8,27.3,31,0.00,,,1.08,WSDL version 342,2013-01-31 14:00:00,
2013-01-31 09:05:00,41.2,12.7,28.73,WSW,255,12.0,27.3,31,-99.99,,,-99.99,WSDL version 342,2013-01-31 14:05:00,
2013-01-31 09:10:00,40.8,12.1,28.73,West,270,14.1,25.3,31,0.00,,,1.08,WSDL version 342,2013-01-31 14:10:00,
2013-01-31 09:16:00,40.8,11.8,28.76,WSW,254,13.0,25.3,30,0.00,,,1.08,WSDL version 342,2013-01-31 14:16:00,
2013-01-31 09:21:00,40.6,11.2,28.76,West,267,10.9,22.4,29,0.00,,,1.08,WSDL version 342,2013-01-31 14:21:00,
2013-01-31 09:26:00,40.4,10.6,28.79,WSW,254,8.1,22.4,29,0.00,,,1.08,WSDL version 342,2013-01-31 14:26:00,
2013-01-31 09:33:00,40.2,10.7,28.79,WSW,241,10.3,28.0,30,0.00,,,1.08,WSDL version 342,2013-01-31 14:33:00,
2013-01-31 09:38:00,40.1,10.9,28.79,WSW,244,7.8,28.0,30,0.00,,,1.08,WSDL version 342,2013-01-31 14:38:00,
2013-01-31 09:43:00,40.5,11.0,28.79,WSW,248,11.9,19.7,29,0.00,,,1.08,WSDL version 342,2013-01-31 14:43:00,
2013-01-31 09:48:00,40.7,10.9,28.79,West,264,12.0,22.4,29,0.00,,,1.08,WSDL version 342,2013-01-31 14:48:00,
2013-01-31 09:53:00,40.6,10.4,28.79,WSW,239,8.1,25.7,29,0.00,,,1.08,WSDL version 342,2013-01-31 14:53:00,
2013-01-31 09:58:00,41.0,10.4,28.76,SW,231,10.5,25.7,28,0.00,,,1.08,WSDL version 342,2013-01-31 14:58:00,
2013-01-31 10:03:00,41.4,10.7,28.76,WSW,238,10.2,17.0,28,0.00,,,1.08,WSDL version 342,2013-01-31 15:03:00,
2013-01-31 10:08:00,41.9,11.2,28.76,SSW,212,11.4,22.4,28,0.00,,,1.08,WSDL version 342,2013-01-31 15:08:00,
2013-01-31 10:13:00,41.9,10.8,28.79,West,273,12.2,22.4,26,0.00,,,1.08,WSDL version 342,2013-01-31 15:13:00,
2013-01-31 10:19:00,41.9,10.6,28.79,WSW,257,12.7,23.3,26,0.00,,,1.08,WSDL version 342,2013-01-31 15:19:00,
2013-01-31 10:24:00,42.3,11.1,28.79,WSW,251,10.0,23.3,28,0.00,,,1.08,WSDL version 342,2013-01-31 15:24:00,
2013-01-31 10:29:00,42.9,10.3,28.82,WSW,248,10.1,16.8,25,0.00,,,1.08,WSDL version 342,2013-01-31 15:29:00,
2013-01-31 10:34:00,43.1,9.7,28.82,WSW,251,9.7,22.8,25,0.00,,,1.08,WSDL version 342,2013-01-31 15:34:00,
2013-01-31 10:39:00,42.9,7.7,28.82,West,273,11.3,27.1,23,0.00,,,1.08,WSDL version 342,2013-01-31 15:39:00,
2013-01-31 10:44:00,42.6,7.4,28.82,West,267,12.9,29.3,23,0.00,,,1.08,WSDL version 342,2013-01-31 15:44:00,
2013-01-31 10:49:00,41.8,6.7,28.82,West,274,12.2,29.3,23,-99.99,,,-99.99,WSDL version 342,2013-01-31 15:49:00,
2013-01-31 10:54:00,40.5,4.8,28.82,West,264,10.8,27.5,23,0.00,,,1.08,WSDL version 342,2013-01-31 15:54:00,
2013-01-31 10:59:00,40.2,5.4,28.85,West,276,8.6,19.5,23,0.00,,,1.08,WSDL version 342,2013-01-31 15:59:00,
2013-01-31 11:04:00,39.8,5.0,28.85,West,276,9.2,14.8,23,0.00,,,1.08,WSDL version 342,2013-01-31 16:04:00,
2013-01-31 11:09:00,39.6,4.8,28.85,WSW,252,8.5,25.9,23,0.00,,,1.08,WSDL version 342,2013-01-31 16:09:00,
2013-01-31 11:14:00,40.2,5.3,28.85,WSW,250,9.0,25.9,23,0.00,,,1.08,WSDL version 342,2013-01-31 16:14:00,
2013-01-31 11:19:00,41.0,6.0,28.85,West,281,10.1,17.4,23,0.00,,,1.08,WSDL version 342,2013-01-31 16:19:00,
2013-01-31 11:24:00,42.0,6.9,28.85,WSW,245,5.6,16.8,23,0.00,,,1.08,WSDL version 342,2013-01-31 16:24:00,
2013-01-31 11:29:00,42.3,7.1,28.85,WSW,248,8.8,13.0,23,-99.99,,,-99.99,WSDL version 342,2013-01-31 16:29:00,
2013-01-31 11:34:00,43.0,7.7,28.85,SSW,208,7.2,13.2,23,-99.99,,,-99.99,WSDL version 342,2013-01-31 16:34:00,
2013-01-31 11:41:00,43.4,8.1,28.85,West,264,8.6,20.6,23,-99.99,,,-99.99,WSDL version 342,2013-01-31 16:41:00,
2013-01-31 11:46:00,43.2,7.9,28.85,WSW,238,7.4,20.6,23,-99.99,,,-99.99,WSDL version 342,2013-01-31 16:46:00,
2013-01-31 11:51:00,43.4,8.0,28.85,WSW,241,7.9,16.8,23,-99.99,,,-99.99,WSDL version 342,2013-01-31 16:51:00,
2013-01-31 11:56:00,43.3,8.0,28.85,WSW,253,8.2,16.8,23,-99.99,,,-99.99,WSDL version 342,2013-01-31 16:56:00,
2013-01-31 12:01:00,43.1,7.8,28.85,WSW,257,5.8,14.3,23,-99.99,,,-99.99,WSDL version 342,2013-01-31 17:01:00,
2013-01-31 12:06:00,42.8,7.6,28.85,WSW,245,8.6,17.4,23,-99.99,,,-99.99,WSDL version 342,2013-01-31 17:06:00,
2013-01-31 12:13:00,42.7,7.5,28.85,WSW,248,10.4,19.9,23,-99.99,,,-99.99,WSDL version 342,2013-01-31 17:13:00,
2013-01-31 12:18:00,41.9,6.7,28.85,WSW,238,9.6,19.9,23,0.00,,,1.08,WSDL version 342,2013-01-31 17:18:00,
2013-01-31 12:23:00,41.5,7.5,28.85,SSW,203,6.6,22.1,23,0.00,,,1.08,WSDL version 342,2013-01-31 17:23:00,
2013-01-31 12:29:00,40.9,6.0,28.85,WSW,254,8.7,24.6,23,0.00,,,1.08,WSDL version 342,2013-01-31 17:29:00,
2013-01-31 12:34:00,41.7,6.6,28.85,SW,222,8.4,24.6,23,0.00,,,1.08,WSDL version 342,2013-01-31 17:34:00,
2013-01-31 12:39:00,42.3,7.1,28.85,West,279,8.7,18.6,23,-99.99,,,-99.99,WSDL version 342,2013-01-31 17:39:00,
2013-01-31 12:44:00,43.0,6.9,28.85,WSW,245,5.5,18.6,23,0.00,,,1.08,WSDL version 342,2013-01-31 17:44:00,
2013-01-31 12:49:00,42.5,5.5,28.85,SW,231,12.7,23.3,21,0.00,,,1.08,WSDL version 342,2013-01-31 17:49:00,
2013-01-31 12:54:00,41.1,4.1,28.85,West,263,10.0,23.3,21,0.00,,,1.08,WSDL version 342,2013-01-31 17:54:00,
2013-01-31 12:59:00,41.0,4.7,28.85,WSW,256,7.8,17.4,23,0.00,,,1.08,WSDL version 342,2013-01-31 17:59:00,
2013-01-31 13:04:00,40.6,5.7,28.85,West,274,11.5,17.7,23,0.00,,,1.08,WSDL version 342,2013-01-31 18:04:00,
2013-01-31 13:09:00,40.4,5.5,28.85,WSW,250,8.2,17.7,23,0.00,,,1.08,WSDL version 342,2013-01-31 18:09:00,
2013-01-31 13:14:00,40.8,5.8,28.85,WSW,256,7.9,14.8,23,-99.99,,,-99.99,WSDL version 342,2013-01-31 18:14:00,
2013-01-31 13:19:00,40.7,5.8,28.85,West,259,8.1,14.3,23,-99.99,,,-99.99,WSDL version 342,2013-01-31 18:19:00,
2013-01-31 13:24:00,40.6,7.3,28.85,WNW,293,8.7,19.2,26,-99.99,,,-99.99,WSDL version 342,2013-01-31 18:24:00,
2013-01-31 13:29:00,41.1,7.9,28.88,WNW,299,8.9,22.4,26,0.00,,,1.08,WSDL version 342,2013-01-31 18:29:00,
2013-01-31 13:34:00,42.2,7.0,28.88,SW,236,11.2,25.9,23,0.00,,,1.08,WSDL version 342,2013-01-31 18:34:00,
2013-01-31 13:39:00,41.8,6.7,28.88,West,267,7.3,25.9,23,0.00,,,1.08,WSDL version 342,2013-01-31 18:39:00,
2013-01-31 13:45:00,42.1,7.0,28.88,West,262,6.4,12.3,23,-99.99,,,-99.99,WSDL version 342,2013-01-31 18:45:00,
2013-01-31 13:50:00,42.9,7.6,28.88,West,267,9.2,13.4,23,0.00,,,1.08,WSDL version 342,2013-01-31 18:50:00,
2013-01-31 13:55:00,43.1,6.5,28.88,WSW,257,10.4,16.6,23,0.00,,,1.08,WSDL version 342,2013-01-31 18:55:00,
2013-01-31 14:00:00,43.4,8.1,28.91,West,264,4.6,16.6,23,0.00,,,1.08,WSDL version 342,2013-01-31 19:00:00,
2013-01-31 14:05:00,43.6,5.1,28.91,WSW,251,10.8,22.8,20,0.00,,,1.08,WSDL version 342,2013-01-31 19:05:00,
2013-01-31 14:10:00,42.5,5.3,28.91,WSW,241,9.7,22.8,21,0.00,,,1.08,WSDL version 342,2013-01-31 19:10:00,
2013-01-31 14:15:00,42.2,5.0,28.91,West,280,10.2,17.4,21,0.00,,,1.08,WSDL version 342,2013-01-31 19:15:00,
2013-01-31 14:20:00,41.2,4.2,28.91,West,262,10.0,19.9,21,-99.99,,,-99.99,WSDL version 342,2013-01-31 19:20:00,
2013-01-31 14:25:00,40.0,3.2,28.91,WSW,248,9.8,19.9,21,0.00,,,1.08,WSDL version 342,2013-01-31 19:25:00,
2013-01-31 14:30:00,39.5,2.8,28.91,West,278,7.8,15.2,21,0.00,,,1.08,WSDL version 342,2013-01-31 19:30:00,
2013-01-31 14:35:00,39.4,2.7,28.91,WNW,293,7.4,18.1,21,0.00,,,1.08,WSDL version 342,2013-01-31 19:35:00,
2013-01-31 14:40:00,39.7,3.0,28.91,SW,234,8.5,18.1,21,0.00,,,1.08,WSDL version 342,2013-01-31 19:40:00,
2013-01-31 14:45:00,40.4,3.5,-100.00,West,267,9.2,23.0,21,-99.99,,,-99.99,WSDL version 342,2013-01-31 19:45:00,
2013-01-31 14:50:00,40.8,3.8,28.91,SW,235,8.9,23.0,21,-99.99,,,-99.99,WSDL version 342,2013-01-31 19:50:00,
2013-01-31 14:55:00,41.0,4.0,28.91,SW,215,7.8,19.9,21,-99.99,,,-99.99,WSDL version 342,2013-01-31 19:55:00,
2013-01-31 15:00:00,41.0,4.0,28.91,West,281,7.8,19.9,21,-99.99,,,-99.99,WSDL version 342,2013-01-31 20:00:00,
2013-01-31 15:05:00,40.7,3.8,28.91,WSW,248,6.3,19.9,21,-99.99,,,-99.99,WSDL version 342,2013-01-31 20:05:00,
2013-01-31 15:10:00,39.0,2.4,28.91,West,281,10.2,19.5,21,-99.99,,,-99.99,WSDL version 342,2013-01-31 20:10:00,
2013-01-31 15:15:00,37.9,1.5,28.94,WNW,298,11.8,19.5,21,-99.99,,,-99.99,WSDL version 342,2013-01-31 20:15:00,
2013-01-31 15:20:00,37.6,1.2,28.94,SW,235,11.2,18.6,21,-99.99,,,-99.99,WSDL version 342,2013-01-31 20:20:00,
2013-01-31 15:25:00,37.5,1.1,28.94,WSW,248,9.3,18.1,21,-99.99,,,-99.99,WSDL version 342,2013-01-31 20:25:00,
2013-01-31 15:30:00,37.6,1.2,28.97,SW,214,8.1,18.1,21,-99.99,,,-99.99,WSDL version 342,2013-01-31 20:30:00,
2013-01-31 15:35:00,37.9,1.5,28.97,WSW,251,10.7,22.1,21,-99.99,,,-99.99,WSDL version 342,2013-01-31 20:35:00,
2013-01-31 15:40:00,37.4,1.5,28.97,West,266,10.0,22.1,22,-99.99,,,-99.99,WSDL version 342,2013-01-31 20:40:00,
2013-01-31 15:45:00,36.9,1.6,28.97,WSW,248,9.4,19.9,22,-99.99,,,-99.99,WSDL version 342,2013-01-31 20:45:00,
2013-01-31 15:50:00,36.6,1.3,28.97,West,259,8.7,19.9,22,-99.99,,,-99.99,WSDL version 342,2013-01-31 20:50:00,
2013-01-31 15:55:00,36.2,2.4,28.97,West,270,9.5,17.7,24,-99.99,,,-99.99,WSDL version 342,2013-01-31 20:55:00,
2013-01-31 16:00:00,35.9,3.8,28.97,West,270,10.2,18.1,27,-99.99,,,-99.99,WSDL version 342,2013-01-31 21:00:00,
2013-01-31 16:05:00,35.8,5.1,28.97,WSW,248,7.7,18.1,27,-99.99,,,-99.99,WSDL version 342,2013-01-31 21:05:00,
2013-01-31 16:10:00,36.3,2.9,28.97,WSW,239,6.8,18.1,24,-99.99,,,-99.99,WSDL version 342,2013-01-31 21:10:00,
2013-01-31 16:15:00,36.2,2.9,29.00,WSW,248,7.9,19.5,24,-99.99,,,-99.99,WSDL version 342,2013-01-31 21:15:00,
2013-01-31 16:20:00,35.5,3.5,29.00,West,279,8.4,19.5,27,-99.99,,,-99.99,WSDL version 342,2013-01-31 21:20:00,
2013-01-31 16:25:00,34.7,2.9,29.00,WSW,257,8.4,19.2,25,-99.99,,,-99.99,WSDL version 342,2013-01-31 21:25:00,
2013-01-31 16:30:00,34.5,2.3,29.00,SW,230,9.5,17.4,25,-99.99,,,-99.99,WSDL version 342,2013-01-31 21:30:00,
2013-01-31 16:35:00,34.1,2.0,29.00,West,270,10.0,19.7,25,-99.99,,,-99.99,WSDL version 342,2013-01-31 21:35:00,
2013-01-31 16:40:00,33.6,1.1,29.00,WSW,257,7.3,19.7,25,-99.99,,,-99.99,WSDL version 342,2013-01-31 21:40:00,
2013-01-31 16:45:00,33.3,0.4,29.03,West,259,8.5,17.0,23,-99.99,,,-99.99,WSDL version 342,2013-01-31 21:45:00,
2013-01-31 16:50:00,33.1,0.2,29.03,West,259,9.2,17.0,23,-99.99,,,-99.99,WSDL version 342,2013-01-31 21:50:00,
2013-01-31 16:55:00,33.0,0.1,29.03,West,266,6.0,10.7,23,-99.99,,,-99.99,WSDL version 342,2013-01-31 21:55:00,
2013-01-31 17:00:00,32.9,0.0,29.03,SW,225,7.8,10.7,23,-99.99,,,-99.99,WSDL version 342,2013-01-31 22:00:00,
2013-01-31 17:05:00,32.8,0.2,29.03,West,270,7.5,13.0,25,-99.99,,,-99.99,WSDL version 342,2013-01-31 22:05:00,
2013-01-31 17:10:00,32.7,-1.0,29.03,WSW,257,8.6,17.2,23,-99.99,,,-99.99,WSDL version 342,2013-01-31 22:10:00,
2013-01-31 17:15:00,32.7,-1.0,29.03,WSW,257,7.3,17.2,23,0.00,,,1.08,WSDL version 342,2013-01-31 22:15:00,
2013-01-31 17:20:00,32.7,-0.6,29.03,WSW,248,6.6,19.2,25,-99.99,,,-99.99,WSDL version 342,2013-01-31 22:20:00,
2013-01-31 17:25:00,32.5,0.6,29.03,West,264,7.3,19.2,25,-99.99,,,-99.99,WSDL version 342,2013-01-31 22:25:00,
2013-01-31 17:30:00,32.4,0.5,29.03,West,267,6.9,15.4,25,-99.99,,,-99.99,WSDL version 342,2013-01-31 22:30:00,
2013-01-31 17:35:00,32.2,0.3,29.03,WSW,257,4.8,9.8,25,0.00,,,1.08,WSDL version 342,2013-01-31 22:35:00,
2013-01-31 17:40:00,32.2,0.3,29.03,WSW,244,6.0,14.3,25,-99.99,,,-99.99,WSDL version 342,2013-01-31 22:40:00,
2013-01-31 17:45:00,32.2,-1.5,29.06,SW,234,6.8,15.4,23,-99.99,,,-99.99,WSDL version 342,2013-01-31 22:45:00,
2013-01-31 17:50:00,32.2,-1.0,29.06,West,261,6.9,15.4,25,-99.99,,,-99.99,WSDL version 342,2013-01-31 22:50:00,
2013-01-31 17:55:00,32.2,-0.9,29.06,SW,219,7.0,14.1,23,-99.99,,,-99.99,WSDL version 342,2013-01-31 22:55:00,
2013-01-31 18:00:00,32.0,1.8,29.09,West,263,5.7,21.9,25,-99.99,,,-99.99,WSDL version 342,2013-01-31 23:00:00,
2013-01-31 18:05:00,31.7,2.6,29.09,West,275,7.0,21.9,23,-99.99,,,-99.99,WSDL version 342,2013-01-31 23:05:00,
2013-01-31 18:10:00,31.5,3.0,29.09,SW,233,7.8,13.6,25,-99.99,,,-99.99,WSDL version 342,2013-01-31 23:10:00,
2013-01-31 18:15:00,31.4,2.9,29.09,West,259,5.6,13.6,25,-99.99,,,-99.99,WSDL version 342,2013-01-31 23:15:00,
2013-01-31 18:20:00,31.2,2.7,29.09,SSW,203,4.0,8.7,25,-99.99,,,-99.99,WSDL version 342,2013-01-31 23:20:00,
2013-01-31 18:25:00,31.1,2.7,29.09,SW,225,4.3,12.8,25,-99.99,,,-99.99,WSDL version 342,2013-01-31 23:25:00,
2013-01-31 18:30:00,30.9,2.5,29.09,SSW,212,8.4,14.3,25,-99.99,,,-99.99,WSDL version 342,2013-01-31 23:30:00,
2013-01-31 18:35:00,30.8,2.4,29.09,WSW,248,5.0,14.3,25,-99.99,,,-99.99,WSDL version 342,2013-01-31 23:35:00,
2013-01-31 18:40:00,30.6,2.2,29.09,West,270,5.7,6.5,25,-99.99,,,-99.99,WSDL version 342,2013-01-31 23:40:00,
2013-01-31 18:45:00,30.6,2.2,29.09,West,259,6.9,8.5,25,-99.99,,,-99.99,WSDL version 342,2013-01-31 23:45:00,
2013-01-31 18:50:00,30.9,2.5,29.09,West,259,8.5,13.0,25,-99.99,,,-99.99,WSDL version 342,2013-01-31 23:50:00,
2013-01-31 18:55:00,30.9,2.5,29.09,West,260,7.9,13.0,25,-99.99,,,-99.99,WSDL version 342,2013-01-31 23:55:00,
2013-01-31 19:00:00,30.8,3.9,29.09,West,259,4.5,11.9,28,-99.99,,,-99.99,WSDL version 342,2013-02-01 00:00:00,
2013-01-31 19:05:00,30.7,4.5,29.09,WSW,243,8.0,10.7,28,-99.99,,,-99.99,WSDL version 342,2013-02-01 00:05:00,
2013-01-31 19:10:00,30.7,5.6,29.09,WSW,255,3.4,10.7,30,-99.99,,,-99.99,WSDL version 342,2013-02-01 00:10:00,
2013-01-31 19:15:00,30.6,6.1,29.09,WSW,255,5.7,10.1,31,-99.99,,,-99.99,WSDL version 342,2013-02-01 00:15:00,
2013-01-31 19:20:00,30.7,6.5,29.09,WSW,248,9.9,10.1,31,-99.99,,,-99.99,WSDL version 342,2013-02-01 00:20:00,
2013-01-31 19:25:00,30.7,6.5,29.12,WNW,297,7.6,10.3,31,-99.99,,,-99.99,WSDL version 342,2013-02-01 00:25:00,
2013-01-31 19:30:00,30.4,10.6,29.12,WNW,284,12.1,12.1,47,-99.99,,,-99.99,WSDL version 342,2013-02-01 00:30:00,
2013-01-31 19:35:00,28.9,15.8,29.12,SW,221,6.4,11.9,55,-99.99,,,-99.99,WSDL version 342,2013-02-01 00:35:00,
2013-01-31 19:40:00,28.1,15.5,29.15,West,273,6.5,15.9,54,0.00,,,1.08,WSDL version 342,2013-02-01 00:40:00,
2013-01-31 19:45:00,27.8,13.9,29.15,West,270,6.2,15.9,50,-99.99,,,-99.99,WSDL version 342,2013-02-01 00:45:00,
2013-01-31 19:50:00,27.8,10.6,29.15,WSW,248,5.8,10.7,43,-99.99,,,-99.99,WSDL version 342,2013-02-01 00:50:00,
2013-01-31 19:55:00,28.0,9.7,29.15,West,259,7.7,17.0,40,0.00,,,1.08,WSDL version 342,2013-02-01 00:55:00,
2013-01-31 20:00:00,28.0,8.3,29.15,WSW,244,5.9,17.0,38,0.00,,,1.08,WSDL version 342,2013-02-01 01:00:00,
2013-01-31 20:05:00,28.0,8.0,29.15,West,281,5.5,14.8,38,-99.99,,,-99.99,WSDL version 342,2013-02-01 01:05:00,
2013-01-31 20:12:00,27.9,7.9,29.15,WSW,257,6.3,10.7,38,-99.99,,,-99.99,WSDL version 342,2013-02-01 01:12:00,
2013-01-31 20:17:00,27.9,7.6,29.15,West,276,4.5,10.7,37,-99.99,,,-99.99,WSDL version 342,2013-02-01 01:17:00,
2013-01-31 20:22:00,27.9,7.4,29.15,WSW,240,6.3,8.5,37,-99.99,,,-99.99,WSDL version 342,2013-02-01 01:22:00,
2013-01-31 20:27:00,27.9,7.4,29.12,WNW,285,6.3,14.3,37,-99.99,,,-99.99,WSDL version 342,2013-02-01 01:27:00,
2013-01-31 20:32:00,27.9,7.0,29.12,WSW,252,6.2,14.3,36,-99.99,,,-99.99,WSDL version 342,2013-02-01 01:32:00,
2013-01-31 20:37:00,27.9,6.5,29.12,WSW,257,6.7,13.0,35,-99.99,,,-99.99,WSDL version 342,2013-02-01 01:37:00,
2013-01-31 20:42:00,27.8,6.0,29.15,WSW,245,7.9,14.5,34,-99.99,,,-99.99,WSDL version 342,2013-02-01 01:42:00,
2013-01-31 20:48:00,27.7,5.1,29.15,West,270,9.1,16.8,33,-99.99,,,-99.99,WSDL version 342,2013-02-01 01:48:00,
2013-01-31 20:53:00,27.7,4.5,29.15,West,266,8.8,17.0,32,-99.99,,,-99.99,WSDL version 342,2013-02-01 01:53:00,
2013-01-31 20:58:00,27.6,4.0,29.15,WSW,257,7.2,17.0,32,-99.99,,,-99.99,WSDL version 342,2013-02-01 01:58:00,
2013-01-31 21:03:00,27.4,3.6,29.15,WNW,284,7.7,12.3,31,-99.99,,,-99.99,WSDL version 342,2013-02-01 02:03:00,
2013-01-31 21:08:00,27.3,3.4,29.15,WNW,293,9.4,15.7,31,-99.99,,,-99.99,WSDL version 342,2013-02-01 02:08:00,
2013-01-31 21:13:00,27.2,3.3,29.15,West,264,6.4,16.8,31,-99.99,,,-99.99,WSDL version 342,2013-02-01 02:13:00,
2013-01-31 21:18:00,27.1,1.8,29.15,West,279,9.9,17.7,28,-99.99,,,-99.99,WSDL version 342,2013-02-01 02:18:00,
2013-01-31 21:23:00,27.1,1.3,29.15,WNW,286,6.3,17.7,28,-99.99,,,-99.99,WSDL version 342,2013-02-01 02:23:00,
2013-01-31 21:28:00,27.0,1.2,29.15,WNW,287,6.5,17.7,28,-99.99,,,-99.99,WSDL version 342,2013-02-01 02:28:00,
2013-01-31 21:33:00,27.0,1.6,29.15,WSW,240,6.9,13.0,28,-99.99,,,-99.99,WSDL version 342,2013-02-01 02:33:00,
2013-01-31 21:38:00,26.8,1.0,29.15,West,281,5.7,13.6,28,-99.99,,,-99.99,WSDL version 342,2013-02-01 02:38:00,
2013-01-31 21:43:00,26.7,2.1,29.15,WNW,293,6.3,14.5,31,-99.99,,,-99.99,WSDL version 342,2013-02-01 02:43:00,
2013-01-31 21:48:00,26.5,2.7,29.15,West,266,4.6,14.5,31,-99.99,,,-99.99,WSDL version 342,2013-02-01 02:48:00,
2013-01-31 21:53:00,26.4,2.6,29.15,WNW,285,4.7,13.0,31,-99.99,,,-99.99,WSDL version 342,2013-02-01 02:53:00,
2013-01-31 21:58:00,26.4,2.6,29.15,West,263,6.0,13.0,31,-99.99,,,-99.99,WSDL version 342,2013-02-01 02:58:00,
2013-01-31 22:03:00,26.3,2.5,29.15,West,261,6.6,12.5,31,-99.99,,,-99.99,WSDL version 342,2013-02-01 03:03:00,
2013-01-31 22:08:00,26.2,2.6,29.15,West,270,4.4,8.7,32,-99.99,,,-99.99,WSDL version 342,2013-02-01 03:08:00,
2013-01-31 22:13:00,26.1,2.8,29.15,West,270,5.5,8.7,32,-99.99,,,-99.99,WSDL version 342,2013-02-01 03:13:00,
2013-01-31 22:18:00,26.0,2.8,29.15,West,270,5.4,8.5,32,-99.99,,,-99.99,WSDL version 342,2013-02-01 03:18:00,
2013-01-31 22:24:00,25.9,2.8,29.15,West,278,5.2,13.6,32,-99.99,,,-99.99,WSDL version 342,2013-02-01 03:24:00,
2013-01-31 22:29:00,25.9,2.8,29.18,WNW,285,6.0,13.6,32,-99.99,,,-99.99,WSDL version 342,2013-02-01 03:29:00,
2013-01-31 22:34:00,25.8,2.7,29.18,WSW,248,5.4,8.7,32,-99.99,,,-99.99,WSDL version 342,2013-02-01 03:34:00,
2013-01-31 22:39:00,25.9,2.8,29.18,SW,234,6.0,10.3,32,-99.99,,,-99.99,WSDL version 342,2013-02-01 03:39:00,
2013-01-31 22:44:00,25.7,2.5,-100.00,WSW,242,5.3,10.3,32,-99.99,,,-99.99,WSDL version 342,2013-02-01 03:44:00,
2013-01-31 22:49:00,25.6,2.5,29.18,WSW,248,5.4,6.9,32,-99.99,,,-99.99,WSDL version 342,2013-02-01 03:49:00,
2013-01-31 22:54:00,25.5,2.4,29.18,West,261,4.3,9.4,32,-99.99,,,-99.99,WSDL version 342,2013-02-01 03:54:00,
2013-01-31 22:59:00,25.5,2.4,29.18,West,270,6.7,11.2,32,-99.99,,,-99.99,WSDL version 342,2013-02-01 03:59:00,
2013-01-31 23:04:00,25.5,2.4,29.18,WSW,251,4.4,11.2,32,-99.99,,,-99.99,WSDL version 342,2013-02-01 04:04:00,
2013-01-31 23:09:00,25.5,2.4,29.18,WSW,248,6.6,13.0,32,-99.99,,,-99.99,WSDL version 342,2013-02-01 04:09:00,
2013-01-31 23:14:00,25.5,2.4,29.18,WSW,248,4.5,13.0,32,-99.99,,,-99.99,WSDL version 342,2013-02-01 04:14:00,
2013-01-31 23:19:00,25.3,2.3,29.18,West,278,2.9,9.6,32,-99.99,,,-99.99,WSDL version 342,2013-02-01 04:19:00,
2013-01-31 23:24:00,25.3,2.3,29.18,WSW,239,4.8,8.1,32,-99.99,,,-99.99,WSDL version 342,2013-02-01 04:24:00,
2013-01-31 23:29:00,25.1,2.0,29.21,West,259,3.6,8.1,32,-99.99,,,-99.99,WSDL version 342,2013-02-01 04:29:00,
2013-01-31 23:34:00,25.0,1.9,29.21,WSW,240,2.4,7.4,32,-99.99,,,-99.99,WSDL version 342,2013-02-01 04:34:00,
2013-01-31 23:39:00,24.9,2.0,29.21,SW,234,4.1,7.8,33,-99.99,,,-99.99,WSDL version 342,2013-02-01 04:39:00,
2013-01-31 23:44:00,24.8,2.2,29.21,SW,229,5.4,8.5,32,-99.99,,,-99.99,WSDL version 342,2013-02-01 04:44:00,
2013-01-31 23:49:00,25.0,1.9,29.21,SW,216,4.8,8.7,32,-99.99,,,-99.99,WSDL version 342,2013-02-01 04:49:00,
2013-01-31 23:54:00,25.0,1.9,29.21,WSW,244,4.9,8.7,32,-99.99,,,-99.99,WSDL version 342,2013-02-01 04:54:00,
2013-01-31 23:59:00,25.0,1.9,29.21,SW,225,3.2,7.4,32,-99.99,,,-99.99,WSDL version 342,2013-02-01 04:59:00,